Powrót do katalogu

SPOQC

AktywnyNaukaSSO
NORAD 68423·PAYLOAD·🇳🇱 Netherlands

Wystrzelony Mar 30, 2026 z Vandenberg Space Force Base

Loading…

Następne Przeloty (najbliższe 24 godziny)

TLE

ŚwieżeSource: Space-Track

Epoka: Sep 13, 2026, 20:06 UTC

1 68423U 26067H   26256.83759977  .00004335  00000-0  20713-3 0  9991
2 68423  97.4607 214.1650 0001688  69.4141 290.7275 15.19549798 25406

Śledź SPOQC w czasie rzeczywistym z AllMySat

Download on the App Store